Location: Ertinghausen
(51.6624°N, 9.7874°E)
Time: 10:40:13
(UTC+00:00)

Meteor 1-28 Rocket - Pass Details

Date: 23 May 2024
Orbit: 474 x 488 km, 97.5° (Epoch: 23 June)

Event Time Altitude Azimuth Distance (km) Brightness Sun altitude
Exits shadow 02:01:02 - 175° (S) 2,013 5.8 -9.3°
Reaches altitude 10° 02:01:53 10° 177° (S) 1,658 5.3 -9.3°
Maximum altitude 02:05:25 61° 258° (WSW) 551 3.1 -8.9°
Drops below altitude 10° 02:08:57 10° 340° (NNW) 1,664 6.2 -8.6°
Sets 02:11:02 0° 344° (NNW) 2,546 7.2 -8.4°
